Regional Weather Roundup
Issued by NWS

Home | Current Version | Previous Version | Text Only | Print | Product List | Glossary Off
Versions: 1 2 3 4 5 6 7 8 9 10 11 12 13 14 15 16 17 18 19 20 21 22 23 24 25 26 27 28

000
ASUS45 KBOI 311010
RWRID

IDAHO REGIONAL WEATHER ROUNDUP
NATIONAL WEATHER SERVICE BOISE ID
400 AM MDT TUE MAY 31 2016

NOTE: "FAIR" INDICATES FEW OR NO CLOUDS BELOW 12000 FEET
WITH NO SIGNIFICANT WEATHER AND/OR OBSTRUCTIONS TO VISIBILITY

IDZ012-014-311100-
SOUTHWEST IDAHO


CITY           SKY/WX    TMP DP  RH WIND       PRES   REMARKS
BOISE          CLEAR     50  37  61 S6        30.09R
CALDWELL       CLEAR     51  38  60 W9        30.10R
MOUNTAIN HOME  CLEAR     57  39  51 NW13      30.07S
$$

IDZ016-017-311100-
SOUTHCENTRAL IDAHO


CITY           SKY/WX    TMP DP  RH WIND       PRES   REMARKS
BURLEY         CLEAR     47  31  53 CALM      30.09F
JEROME         CLEAR     51  28  41 CALM      30.09R
TWIN FALLS     CLEAR     49  28  44 S15       30.09R
$$

IDZ019>023-311100-
SOUTHEAST IDAHO


CITY           SKY/WX    TMP DP  RH WIND       PRES   REMARKS
IDAHO FALLS    CLEAR     39  33  79 NW5       30.14R
POCATELLO      CLEAR     45  29  53 S8        30.11S
REXBURG        CLEAR     42  30  62 NE6       30.14S
$$

IDZ006-010-011-018-031-032-311100-
CENTRAL IDAHO MOUNTAINS


CITY           SKY/WX    TMP DP  RH WIND       PRES   REMARKS
MCCALL         CLEAR     46  28  49 N9        30.17S
HAILEY         CLEAR     45  34  65 NW8       30.16S
STANLEY          N/A     30  24  78 SE3       30.22S
SALMON         CLEAR     37  27  65 CALM      30.18R
CHALLIS        CLEAR     43  27  53 CALM      30.18S
$$

IDZ002-004-006-007-026-311100-
NORTHERN IDAHO


CITY           SKY/WX    TMP DP  RH WIND       PRES   REMARKS
LEWISTON       CLEAR     51  36  56 CALM      30.17R
LOWELL           N/A     45  41  86 CALM      30.23R
COEUR D`ALENE  CLEAR     45  36  70 NE7       30.16S
MULLAN PASS    CLEAR     43  26  51 NW7       30.23F
$$




USA.gov is the U.S. government's official web portal to all federal, state and local government web resources and services.